Zurück zum Katalog

STARLINK-4742

AktivKommunikationVLEO
NORAD 53795·PAYLOAD·🇺🇸 United States

Gestartet Sep 11, 2022 von Cape Canaveral Space Force Station

Loading…

Nächste Überflüge (nächste 24 Stunden)

TLE

AktuellSource: CelesTrak SupGP

Epoche: Sep 15, 2026, 01:19 UTC

1 53795C 22111Y   26258.05534722  .00010977  00000+0  35276-3 0  2584
2 53795  53.1574 132.2761 0001147  89.0243 234.2734 15.31718637    15

Verfolge STARLINK-4742 in Echtzeit mit AllMySat

Download on the App Store